Flag Weather past 2 weeks in Perpignan, France

Now
64 °F

Passing clouds.


Feels Like: 64 °F
Forecast: 60 / 61 °F
Wind: 6 mph from Southeast

Location: Perpignan Airport

Current Time: Nov 28, 2014 at 2:32:47 PM

Latest Report: Nov 28, 2014 at 2:00 PM


Visibility: N/A

Pressure: 29.39 "Hg

Humidity: 73%

Dew point: 55 °F

Location of PerpignanLocation

Historic Weather in Perpignan — Graph

°F

Perpignan temperature yesterday

Maximum temperature yesterday: 64 °F (at 1:00 PM)
Minimum temperature yesterday: 48 °F (at 7:00 AM)
Average temperature yesterday: 57 °F

Past Weeks' High & Low Weather Summary

 TemperatureHumidityPressure
High70 °F (Nov 14, 4:43 PM)100% (Nov 14, 12:30 AM)30.18 "Hg (Nov 14, 12:30 AM)
Low41 °F (Nov 16, 7:30 AM)37% (Nov 16, 1:00 PM)29.36 "Hg (Nov 28, 6:00 AM)
Average57 °F83%29.89 "Hg
* Reported Nov 13 1:00 PM — Nov 28 1:30 PM, Perpignan, Weather by CustomWeather, © 2014

Note: Actual official high and low records may vary slightly from our data, if they occured in-between our weather recording intervals... More about our weather records

Advertising

Perpignan weather history for previous 24 hours

 ConditionsComfort  
Time TempWeatherWind HumidityBarometerVisibility
1:30 PM
Nov 28
64 °FPassing clouds.8 mph78%29.39 "HgN/A
1:00 PM66 °FPassing clouds.12 mph68%29.39 "HgN/A
12:30 PM66 °FPassing clouds.13 mph73%29.39 "HgN/A
12:00 PM61 °FThunderstorms. Broken clouds.13 mph83%29.39 "Hg6 mi
11:30 AM59 °FThunderstorms. Partly sunny.13 mph88%29.39 "Hg6 mi
11:00 AM61 °FLight rain. Partly sunny.14 mph83%29.39 "HgN/A
10:30 AM61 °FLight rain. Partly sunny.10 mph83%29.36 "HgN/A
10:00 AM61 °FLight rain. Partly sunny.12 mph88%29.36 "HgN/A
9:00 AM59 °FLight rain. Partly sunny.21 mph82%29.36 "Hg5 mi
8:30 AM63 °FLight rain. Partly sunny.13 mph88%29.36 "Hg4 mi
8:00 AM63 °FLight rain. Broken clouds.14 mph94%29.36 "Hg4 mi
7:24 AM63 °FPassing clouds.9 mph100%29.36 "Hg4 mi
7:00 AM59 °FPartly cloudy.7 mph94%29.36 "Hg4 mi
6:30 AM61 °FStrong thunderstorms. Fog.12 mph83%29.36 "Hg2 mi
6:00 AM63 °FThundershowers. Fog.14 mph88%29.36 "Hg3 mi
5:30 AM61 °FStrong thunderstorms. Partly cloudy.16 mph83%29.39 "HgN/A
4:30 AM63 °FPartly cloudy.12 mph83%29.42 "HgN/A
4:00 AM61 °FPassing clouds.12 mph88%29.42 "HgN/A
3:30 AM63 °FRain. Partly cloudy.9 mph83%29.45 "HgN/A
3:00 AM61 °FPassing clouds.7 mph83%29.47 "HgN/A
2:30 AM61 °FPartly cloudy.5 mph83%29.47 "HgN/A
2:00 AM61 °FPartly cloudy.5 mph83%29.47 "HgN/A
1:30 AM61 °FPassing clouds.6 mph77%29.47 "HgN/A
1:00 AM59 °FPassing clouds.9 mph82%29.50 "HgN/A
12:30 AM61 °FLight rain. Partly cloudy.7 mph77%29.50 "HgN/A
12:00 AM61 °FPassing clouds.8 mph72%29.53 "HgN/A
11:30 PM
Nov 27
61 °FPassing clouds.10 mph72%29.50 "HgN/A
11:00 PM59 °FCool.10 mph77%29.53 "HgN/A
10:30 PM61 °FPassing clouds.12 mph72%29.53 "HgN/A
10:00 PM59 °FPassing clouds.8 mph77%29.53 "HgN/A
9:30 PM59 °FPartly cloudy.8 mph77%29.56 "HgN/A
9:00 PM59 °FPartly cloudy.7 mph77%29.56 "HgN/A
8:30 PM61 °FPartly cloudy.10 mph72%29.56 "HgN/A
8:00 PM61 °FPassing clouds.10 mph72%29.56 "HgN/A
7:30 PM61 °FClear.13 mph72%29.56 "HgN/A
7:00 PM61 °FPassing clouds.14 mph68%29.56 "HgN/A
6:30 PM61 °FPassing clouds.15 mph72%29.56 "HgN/A
6:00 PM63 °FPassing clouds.16 mph64%29.56 "HgN/A
5:30 PM63 °FPartly cloudy.17 mph64%29.56 "HgN/A
5:00 PM63 °FBroken clouds.17 mph64%29.56 "HgN/A
4:30 PM63 °FBroken clouds.16 mph64%29.56 "HgN/A
4:00 PM63 °FBroken clouds.15 mph59%29.59 "HgN/A
3:30 PM63 °FBroken clouds.17 mph64%29.56 "HgN/A
3:00 PM63 °FBroken clouds.20 mph64%29.56 "HgN/A
2:30 PM64 °FPartly sunny.24 mph60%29.56 "HgN/A
2:00 PM63 °FPartly sunny.22 mph64%29.59 "HgN/A
Weather by CustomWeather, © 2014

See weather overviewHow to use our weather pages